Location: Clatteringshaws Loch
(55.0508°N, 4.2860°W)
Time: 09:01:29
(UTC+01:00)

SR - Visible Passes

Search period start: 01 April 2015 00:00
Search period end: 11 April 2015 00:00
Orbit: 585 x 877 km, 66.7° (Epoch: 31 March)

Date Brightness Start Highest point End Pass type
(mag) Time Alt. Az. Time Alt. Az. Time Alt. Az.
01 Apr ? 01:43:23 35° NNE 01:43:23 35° NNE 01:46:04 10° NE visible
01 Apr ? 03:22:50 18° NW 03:24:34 23° NNW 03:28:01 10° NNE visible
01 Apr ? 05:05:01 10° NW 05:08:04 18° N 05:11:06 10° NE visible
02 Apr ? 00:55:27 25° NE 00:55:27 25° NE 00:57:17 10° NE visible
02 Apr ? 02:34:53 28° NW 02:35:25 29° NNW 02:39:13 10° NE visible
02 Apr ? 04:15:44 10° NW 04:18:47 18° N 04:21:46 10° NE visible
02 Apr ? 05:58:38 10° NNW 06:02:14 25° NNE 06:05:49 10° E visible
03 Apr ? 00:07:28 16° NE 00:07:28 16° NE 00:08:25 10° NE visible
03 Apr ? 01:46:54 38° NNW 01:46:54 38° NNW 01:50:28 10° NE visible
03 Apr ? 03:26:19 10° WNW 03:29:30 19° N 03:32:38 10° NE visible
03 Apr ? 05:09:45 10° NW 05:13:01 20° NNE 05:16:17 10° ENE visible
04 Apr ? 00:58:50 39° NNE 00:58:50 39° NNE 01:01:43 10° NE visible
04 Apr ? 02:38:15 17° NW 02:40:15 22° NNW 02:43:41 10° NNE visible
04 Apr ? 04:20:42 10° NW 04:23:45 18° N 04:26:46 10° NE visible
05 Apr ? 00:10:41 30° NE 00:10:41 30° NE 00:12:56 10° NE visible
05 Apr ? 01:50:05 26° NW 01:51:05 29° NNW 01:54:52 10° NNE visible
05 Apr ? 03:31:25 10° NW 03:34:27 18° N 03:37:25 10° NE visible
05 Apr ? 05:14:18 10° NNW 05:17:53 25° NNE 05:21:29 10° E visible
05 Apr ? 23:22:22 22° ENE 23:22:22 22° ENE 23:24:04 10° NE visible
06 Apr ? 01:01:46 40° NW 01:02:00 40° NW 01:06:07 10° NE visible
06 Apr ? 02:41:57 10° WNW 02:45:10 19° N 02:48:17 10° NE visible
06 Apr ? 04:25:25 10° NW 04:28:41 20° NNE 04:31:56 10° ENE visible
06 Apr ? 22:33:51 16° ENE 22:33:51 16° ENE 22:34:59 10° ENE visible
07 Apr ? 00:13:14 61° NNW 00:13:14 61° NNW 00:17:22 10° NE visible
07 Apr ? 01:52:36 11° WNW 01:55:54 22° NNW 01:59:20 10° NNE visible
07 Apr ? 03:36:21 10° NW 03:39:24 18° N 03:42:25 10° NE visible
07 Apr ? 05:18:45 10° NW 05:22:40 33° NNE 05:26:36 10° E visible
07 Apr ? 21:44:55 12° E 21:44:55 12° E 21:45:27 10° ENE visible
07 Apr ? 23:24:16 82° ESE 23:24:16 82° ESE 23:28:35 10° NE visible
08 Apr ? 01:03:35 14° W 01:06:43 29° NNW 01:10:31 10° NNE visible
08 Apr ? 02:47:05 10° NW 02:50:06 18° N 02:53:03 10° NE visible
08 Apr ? 04:29:57 10° NNW 04:33:33 25° NNE 04:37:07 10° E visible
08 Apr ? 22:34:03 35° S 22:35:27 48° SE 22:39:42 10° NE visible
09 Apr ? 00:13:21 10° WSW 00:17:39 40° NW 00:21:45 10° NE visible
09 Apr ? 01:57:36 10° WNW 02:00:48 19° N 02:03:55 10° NE visible
09 Apr ? 03:41:04 10° NW 03:44:19 20° NNE 03:47:34 10° ENE visible
09 Apr ? 05:23:10 10° NW 05:27:20 49° NE 05:31:33 10° ESE visible
09 Apr ? 21:42:54 10° S 21:46:49 27° ESE 21:50:36 10° ENE visible
09 Apr ? 23:24:08 10° SW 23:28:41 62° NW 23:33:00 10° NE visible
10 Apr ? 01:08:00 10° WNW 01:11:32 22° NNW 01:14:58 10° NNE visible
10 Apr ? 02:52:00 10° NW 02:55:02 18° N 02:58:02 10° NE visible
10 Apr ? 04:34:24 10° NW 04:38:19 33° NNE 04:42:14 10° E visible
10 Apr ? 20:55:34 10° SSE 20:58:17 16° ESE 21:01:02 10° ENE visible
10 Apr ? 22:35:12 10° SW 22:39:50 81° SE 22:44:12 10° NE visible
